Location: Audinghen
(50.8518°N, 1.6129°E)
Time: 04:12:28
(UTC+00:00)

Cosmos 724 - Pass Details

Date: 07 August 2020
Orbit: 856 x 939 km, 65.6° (Epoch: 19 September)

Event Time Altitude Azimuth Distance (km) Brightness Sun altitude
Rises 03:26:36 0° 318° (NW) 3,510 7.4 -9.0°
Reaches altitude 10° 03:29:08 10° 314° (NW) 2,579 6.7 -8.7°
Maximum altitude 03:34:57 55° 239° (WSW) 1,087 4.5 -8.0°
Drops below altitude 10° 03:40:53 10° 163° (SSE) 2,617 6.6 -7.3°
Sets 03:43:28 0° 159° (SSE) 3,566 7.3 -6.9°
